Location: Kawakawa
(35.3830°S, 174.0670°E)
Time: 15:21:18
(UTC+13:00)

Explorer 7 - Pass Details

Date: 12 December 2019
Orbit: 485 x 679 km, 50.3° (Epoch: 20 January)

Event Time Altitude Azimuth Distance (km) Brightness Sun altitude
Rises 04:40:53 0° 299° (WNW) 2,633 - -14.2°
Reaches altitude 10° 04:43:10 10° 293° (WNW) 1,727 - -13.9°
Exits shadow 04:44:36 21° 285° (WNW) 1,191 8.0 -13.7°
Maximum altitude 04:46:58 50° 216° (SW) 643 7.2 -13.3°
Drops below altitude 10° 04:50:41 10° 139° (SE) 1,695 10.8 -12.8°
Sets 04:52:54 0° 134° (SE) 2,578 12.4 -12.4°
